Location: Unspecified
(50.7693°N, 0.0000°E)
Time: 15:44:09
(UTC+00:00)

Transit 2A - Pass Details

Date: 29 June 2019
Orbit: 597 x 962 km, 66.7° (Epoch: 21 August)

Event Time Altitude Azimuth Distance (km) Brightness Sun altitude
Rises 08:35:50 0° 313° (NW) 3,399 8.9 41.6°
Reaches altitude 10° 08:39:08 10° 295° (WNW) 2,384 8.2 42.1°
Maximum altitude 08:42:37 18° 256° (WSW) 1,831 7.8 42.7°
Drops below altitude 10° 08:45:54 10° 215° (SW) 2,213 8.4 43.1°
Sets 08:48:50 0° 196° (SSW) 3,057 9.1 43.6°
